When you browse on this site, cookies collect data to enhance your experience and personalize the content and advertising you see.
Visit our Privacy Policy to learn more. By continuing to use the site, you agree to this use of cookies and data.
  • In Hungary
  • List of Countries
  • For 7 days
  • Water Temperature
  • Weather Map
  • News
  • Weather Widgets
  • user-avatar
    Login

    Hourly Weather Tuhani

    Today, 20 January, Monday

    Time Temperature Precipitation Wind Pressure Humidity
    00:00 0°C° 0 mm 5 mps 745 mmHg 89%
    01:00 0°C° 0 mm 5 mps 745 mmHg 87%
    02:00 -1°C° 0 mm 5 mps 745 mmHg 85%
    03:00 -1°C° 0.3 mm 5 mps 745 mmHg 88%
    04:00 -1°C° 0.3 mm 5 mps 745 mmHg 92%
    05:00 -2°C° 0.3 mm 5 mps 745 mmHg 96%
    06:00 -2°C° 0.2 mm 4 mps 745 mmHg 95%
    07:00 -2°C° 0.2 mm 4 mps 745 mmHg 93%
    08:00 -1°C° 0.2 mm 3 mps 746 mmHg 91%
    09:00 -2°C° 0 mm 4 mps 745 mmHg 91%
    10:00 -2°C° 0 mm 4 mps 745 mmHg 91%
    11:00 -2°C° 0 mm 4 mps 745 mmHg 91%
    12:00 -2°C° 0 mm 4 mps 745 mmHg 90%
    13:00 -1°C° 0 mm 4 mps 745 mmHg 89%
    14:00 -1°C° 0 mm 4 mps 745 mmHg 89%
    15:00 -1°C° 0 mm 4 mps 745 mmHg 88%
    16:00 -1°C° 0 mm 4 mps 744 mmHg 87%
    17:00 -1°C° 0 mm 4 mps 744 mmHg 87%
    18:00 -1°C° 0 mm 4 mps 743 mmHg 85%
    19:00 -1°C° 0 mm 4 mps 743 mmHg 83%
    20:00 -1°C° 0 mm 5 mps 742 mmHg 80%
    21:00 -2°C° 0 mm 5 mps 742 mmHg 84%
    22:00 -2°C° 0 mm 5 mps 741 mmHg 87%
    23:00 -2°C° 0 mm 5 mps 740 mmHg 90%

    Tomorrow, 21 January, Tuesday

    Time Temperature Precipitation Wind Pressure Humidity
    00:00 -2°C° 0 mm 5 mps 740 mmHg 87%
    01:00 -2°C° 0 mm 5 mps 739 mmHg 85%
    02:00 -2°C° 0 mm 4 mps 738 mmHg 83%
    03:00 -1°C° 0.7 mm 5 mps 737 mmHg 86%
    04:00 -2°C° 0.7 mm 6 mps 736 mmHg 90%
    05:00 -2°C° 0.7 mm 6 mps 735 mmHg 94%
    06:00 -1°C° 0.2 mm 6 mps 734 mmHg 91%
    07:00 0°C° 0.2 mm 7 mps 733 mmHg 89%
    08:00 +2°C° 0.2 mm 7 mps 733 mmHg 86%
    09:00 +2°C° 0 mm 7 mps 732 mmHg 85%
    10:00 +2°C° 0 mm 6 mps 732 mmHg 84%
    11:00 +3°C° 0 mm 6 mps 731 mmHg 83%
    12:00 +3°C° 0.1 mm 6 mps 731 mmHg 83%
    13:00 +3°C° 0.1 mm 6 mps 731 mmHg 82%
    14:00 +3°C° 0.1 mm 5 mps 731 mmHg 82%
    15:00 +2°C° 0.1 mm 5 mps 730 mmHg 82%
    16:00 +2°C° 0.1 mm 5 mps 730 mmHg 81%
    17:00 +1°C° 0.1 mm 4 mps 729 mmHg 81%
    18:00 0°C° 0 mm 4 mps 729 mmHg 82%
    19:00 0°C° 0 mm 5 mps 729 mmHg 83%
    20:00 -1°C° 0 mm 5 mps 729 mmHg 83%
    21:00 -1°C° 0 mm 5 mps 729 mmHg 81%
    22:00 -2°C° 0 mm 5 mps 729 mmHg 79%
    23:00 -3°C° 0 mm 6 mps 729 mmHg 77%

    Day after tomorrow, 22 January, Wednesday

    Time Temperature Precipitation Wind Pressure Humidity
    00:00 -4°C° 0 mm 6 mps 729 mmHg 77%
    01:00 -4°C° 0 mm 6 mps 729 mmHg 78%
    02:00 -4°C° 0 mm 6 mps 729 mmHg 78%
    03:00 -4°C° 0 mm 6 mps 728 mmHg 78%
    04:00 -5°C° 0 mm 6 mps 728 mmHg 78%
    05:00 -5°C° 0 mm 6 mps 727 mmHg 78%
    06:00 -5°C° 0.1 mm 6 mps 727 mmHg 79%
    07:00 -5°C° 0.1 mm 6 mps 727 mmHg 80%
    08:00 -5°C° 0.1 mm 5 mps 726 mmHg 81%
    09:00 -4°C° 0.1 mm 5 mps 726 mmHg 78%
    10:00 -4°C° 0.1 mm 5 mps 726 mmHg 76%
    11:00 -4°C° 0.1 mm 5 mps 726 mmHg 73%
    12:00 -4°C° 0.1 mm 5 mps 726 mmHg 73%
    13:00 -4°C° 0.1 mm 5 mps 726 mmHg 73%
    14:00 -4°C° 0.1 mm 5 mps 726 mmHg 72%
    15:00 -5°C° 0 mm 5 mps 726 mmHg 74%
    16:00 -5°C° 0 mm 5 mps 727 mmHg 76%
    17:00 -5°C° 0 mm 5 mps 727 mmHg 77%
    18:00 -5°C° 0.1 mm 5 mps 727 mmHg 78%
    19:00 -6°C° 0.1 mm 5 mps 728 mmHg 80%
    20:00 -6°C° 0.1 mm 5 mps 728 mmHg 81%
    21:00 -6°C° 0 mm 5 mps 729 mmHg 77%
    22:00 -8°C° 0 mm 6 mps 729 mmHg 73%
    23:00 -8°C° 0 mm 6 mps 729 mmHg 69%

    23 January, Thursday

    Time Temperature Precipitation Wind Pressure Humidity
    00:00 -9°C° 0 mm 6 mps 730 mmHg 69%
    01:00 -9°C° 0 mm 6 mps 731 mmHg 68%
    02:00 -10°C° 0 mm 6 mps 731 mmHg 68%
    03:00 -10°C° 0 mm 6 mps 732 mmHg 67%
    04:00 -11°C° 0 mm 6 mps 732 mmHg 66%
    05:00 -11°C° 0 mm 6 mps 732 mmHg 66%
    06:00 -11°C° 0 mm 6 mps 733 mmHg 65%
    07:00 -11°C° 0 mm 6 mps 733 mmHg 64%
    08:00 -11°C° 0 mm 5 mps 733 mmHg 63%
    09:00 -11°C° 0 mm 6 mps 734 mmHg 62%
    10:00 -11°C° 0 mm 6 mps 734 mmHg 61%
    11:00 -10°C° 0 mm 6 mps 735 mmHg 60%
    12:00 -10°C° 0 mm 6 mps 735 mmHg 61%
    13:00 -10°C° 0 mm 6 mps 736 mmHg 62%
    14:00 -10°C° 0 mm 5 mps 736 mmHg 63%
    15:00 -11°C° 0 mm 5 mps 737 mmHg 64%
    16:00 -11°C° 0 mm 5 mps 737 mmHg 66%
    17:00 -10°C° 0 mm 4 mps 738 mmHg 67%
    18:00 -11°C° 0 mm 4 mps 738 mmHg 69%
    19:00 -10°C° 0 mm 3 mps 738 mmHg 70%
    20:00 -10°C° 0 mm 3 mps 738 mmHg 71%
    21:00 -10°C° 0 mm 3 mps 738 mmHg 72%
    22:00 -10°C° 0 mm 3 mps 738 mmHg 74%
    23:00 -10°C° 0 mm 3 mps 738 mmHg 75%

    24 January, Friday

    Time Temperature Precipitation Wind Pressure Humidity
    00:00 -10°C° 0 mm 3 mps 737 mmHg 73%
    01:00 -10°C° 0 mm 3 mps 736 mmHg 71%
    02:00 -9°C° 0 mm 3 mps 736 mmHg 69%
    03:00 -9°C° 0.2 mm 3 mps 735 mmHg 77%
    04:00 -10°C° 0.2 mm 4 mps 734 mmHg 84%
    05:00 -9°C° 0.2 mm 4 mps 732 mmHg 92%
    06:00 -9°C° 0.3 mm 4 mps 731 mmHg 92%
    07:00 -8°C° 0.3 mm 5 mps 730 mmHg 93%
    08:00 -7°C° 0.3 mm 5 mps 729 mmHg 94%
    09:00 -6°C° 0.4 mm 5 mps 728 mmHg 93%
    10:00 -4°C° 0.4 mm 5 mps 728 mmHg 92%
    11:00 -2°C° 0.4 mm 5 mps 727 mmHg 91%
    12:00 -2°C° 0.1 mm 5 mps 727 mmHg 88%
    13:00 -3°C° 0.1 mm 6 mps 727 mmHg 84%
    14:00 -3°C° 0.1 mm 6 mps 727 mmHg 80%
    15:00 -4°C° 0 mm 6 mps 728 mmHg 82%
    16:00 -4°C° 0 mm 6 mps 728 mmHg 83%
    17:00 -5°C° 0 mm 6 mps 729 mmHg 85%
    18:00 -5°C° 0 mm 6 mps 729 mmHg 81%
    19:00 -5°C° 0 mm 6 mps 729 mmHg 78%
    20:00 -5°C° 0 mm 6 mps 730 mmHg 74%
    21:00 -5°C° 0 mm 6 mps 730 mmHg 76%
    22:00 -5°C° 0 mm 6 mps 731 mmHg 78%
    23:00 -5°C° 0 mm 5 mps 731 mmHg 80%

    25 January, Saturday

    Time Temperature Precipitation Wind Pressure Humidity
    00:00 -5°C° 0 mm 5 mps 732 mmHg 80%
    01:00 -5°C° 0 mm 5 mps 732 mmHg 80%
    02:00 -5°C° 0 mm 5 mps 732 mmHg 80%
    03:00 -5°C° 0 mm 4 mps 733 mmHg 83%
    04:00 -5°C° 0 mm 4 mps 733 mmHg 87%
    05:00 -6°C° 0 mm 3 mps 733 mmHg 90%
    06:00 -6°C° 0 mm 3 mps 734 mmHg 91%
    07:00 -6°C° 0 mm 3 mps 734 mmHg 93%
    08:00 -7°C° 0 mm 3 mps 734 mmHg 94%
    09:00 -6°C° 0 mm 3 mps 734 mmHg 91%
    10:00 -5°C° 0 mm 4 mps 734 mmHg 88%
    11:00 -4°C° 0 mm 4 mps 734 mmHg 86%
    12:00 -3°C° 0 mm 4 mps 734 mmHg 85%
    13:00 -4°C° 0 mm 5 mps 734 mmHg 85%
    14:00 -2°C° 0 mm 5 mps 733 mmHg 85%
    15:00 -2°C° 0 mm 5 mps 734 mmHg 84%
    16:00 -2°C° 0 mm 5 mps 734 mmHg 84%
    17:00 -2°C° 0 mm 4 mps 734 mmHg 83%
    18:00 -2°C° 0 mm 4 mps 734 mmHg 85%
    19:00 -3°C° 0 mm 4 mps 734 mmHg 87%
    20:00 -2°C° 0 mm 3 mps 734 mmHg 89%
    21:00 -2°C° 0 mm 3 mps 734 mmHg 90%
    22:00 -2°C° 0 mm 2 mps 734 mmHg 91%
    23:00 -2°C° 0 mm 2 mps 735 mmHg 92%
    Show more